Weather History for Crestview, FL

Change the Weather History Date:

Thursday, March 21, 2013

  Actual Average Record
Temperature  
Mean Temperature 51 °F -  
Max Temperature 65 °F - - ()
Min Temperature 37 °F - - ()
Degree Days  
Heating Degree Days 14    
Growing Degree Days 1 (Base 50)    
Moisture  
Dew Point 27 °F    
Average Humidity 44    
Maximum Humidity 81    
Minimum Humidity 16    
Precipitation  
Precipitation 0.00 in - - ()
Sea Level Pressure  
Sea Level Pressure 30.00 in    
Wind  
Wind Speed 7 mph (NNW)    
Max Wind Speed 12 mph    
Max Gust Speed 20 mph    
Visibility 10 miles    
Events      
T = Trace of Precipitation, MM = Missing Value Source: NWS Daily Summary

Daily Weather History Graph

Daily Weather History Graph

Search for Another Location

Airport:

Trip Planner

Search our weather history database for the weather conditions in past years. The results will help you decide how hot, cold, wet, or windy it might be!

Date:

Astronomy

Mar. 21, 2013 Rise Set
Actual Time 6:48 AM CDT 6:58 PM CDT
Civil Twilight 6:24 AM CDT 7:22 PM CDT
Nautical Twilight 5:56 AM CDT 7:50 PM CDT
Astronomical Twilight 5:28 AM CDT 8:18 PM CDT
Moon 1:46 PM CDT (3/21) 2:49 AM CDT (3/21)
Length of Visible Light 12h 58m
Length of Day
12h 10m
Waxing Gibbous, 69% of the Moon is Illuminated
Mar 21
Waxing Gibbous
Mar 27
Full
Apr 2
Last Quarter
Apr 10
New
Apr 18
First Quarter

Hourly Weather History & Observations

Time (CDT) Temp. Windchill Dew Point Humidity Pressure Visibility Wind Dir Wind Speed Gust Speed Precip Events Conditions
12:58 AM 43.5 °F 38.3 °F 31.1 °F 62% 30.03 in 10.0 mi NNW 9.2 mph - N/A   Clear
1:58 AM 45.7 °F 42.7 °F 29.1 °F 52% 30.03 in 10.0 mi NNW 5.8 mph - N/A   Clear
2:58 AM 42.3 °F 39.4 °F 29.3 °F 60% 30.02 in 10.0 mi NNW 4.6 mph - N/A   Clear
3:58 AM 39.9 °F - 30.2 °F 68% 30.01 in 10.0 mi North 2.3 mph - N/A   Clear
4:53 AM 37.4 °F 33.8 °F 32.0 °F 81% 30.00 in 10.0 mi NNW 4.6 mph - N/A   Scattered Clouds
5:58 AM 39.2 °F 34.2 °F 30.9 °F 72% 30.00 in 10.0 mi North 6.9 mph - N/A   Clear
6:58 AM 40.6 °F 38.6 °F 31.6 °F 70% 30.02 in 10.0 mi WNW 3.5 mph - N/A   Clear
7:58 AM 41.7 °F 38.8 °F 33.1 °F 71% 30.05 in 10.0 mi NNW 4.6 mph - N/A   Partly Cloudy
8:53 AM 48.2 °F - 30.2 °F 50% 30.05 in 10.0 mi North 9.2 mph - N/A   Clear
8:59 AM 48.6 °F - 29.8 °F 48% 30.05 in 10.0 mi North 10.4 mph - N/A   Mostly Cloudy
9:53 AM 51.8 °F - 24.8 °F 35% 30.06 in 10.0 mi NNW 11.5 mph - N/A   Clear
9:59 AM 52.2 °F - 25.3 °F 35% 30.07 in 10.0 mi NNW 11.5 mph - N/A   Mostly Cloudy
10:53 AM 57.2 °F - 21.2 °F 25% 30.04 in 10.0 mi NW 11.5 mph 19.6 mph N/A   Scattered Clouds
10:59 AM 56.3 °F - 21.6 °F 26% 30.05 in 10.0 mi North 11.5 mph 19.6 mph N/A   Mostly Cloudy
11:59 AM 58.5 °F - 21.0 °F 24% 30.04 in 10.0 mi North 10.4 mph - N/A   Mostly Cloudy
12:59 PM 61.3 °F - 21.6 °F 22% 30.02 in 10.0 mi NNW 11.5 mph - N/A   Mostly Cloudy
1:55 PM 62.2 °F - 18.7 °F 19% 29.99 in 10.0 mi North 10.4 mph 17.3 mph N/A   Mostly Cloudy
2:59 PM 64.6 °F - 17.8 °F 17% 29.97 in 10.0 mi Variable 6.9 mph - N/A   Mostly Cloudy
3:59 PM 65.3 °F - 18.3 °F 16% 29.94 in 10.0 mi North 8.1 mph - N/A   Mostly Cloudy
4:59 PM 64.9 °F - 18.3 °F 17% 29.92 in 10.0 mi North 6.9 mph - N/A   Mostly Cloudy
5:59 PM 63.3 °F - 20.3 °F 19% 29.93 in 10.0 mi NW 5.8 mph - N/A   Mostly Cloudy
6:59 PM 60.4 °F - 25.0 °F 26% 29.93 in 10.0 mi Calm Calm - N/A   Mostly Cloudy
7:57 PM 55.0 °F - 31.8 °F 41% 29.94 in 10.0 mi SSE 4.6 mph - N/A   Mostly Cloudy
8:55 PM 52.9 °F - 33.8 °F 48% 29.94 in 10.0 mi South 4.6 mph - N/A   Mostly Cloudy
9:55 PM 50.7 °F - 35.8 °F 57% 29.95 in 10.0 mi South 2.3 mph - N/A   Mostly Cloudy
10:55 PM 50.0 °F - 36.7 °F 60% 29.95 in 10.0 mi Calm Calm - N/A   Mostly Cloudy
11:55 PM 49.6 °F - 37.6 °F 63% 29.94 in 10.0 mi Calm Calm - N/A   Mostly Cloudy